Regional Weather Roundup
Issued by NWS State College, PA

Current Version | Previous Version | Text Only | Print | Product List | Glossary On
Versions: 1 2 3 4 5 6 7 8 9 10 11 12 13 14 15 16 17 18 19 20 21 22 23 24 25 26 27 28 29 30 31 32 33 34 35 36 37 38 39 40 41 42 43 44 45 46 47 48 49 50
000
ASUS41 KCTP 241610
RWRCTP

REGIONAL WEATHER ROUNDUP
NATIONAL WEATHER SERVICE STATE COLLEGE PA
1200 PM EDT TUE MAY 24 2016

Note: "fair" indicates few or no clouds below 12,000 feet with no
significant weather and/or obstructions to visibility.

* = STATION THAT DOES NOT REPORT PRECIPITATION /E.G. RAIN...SNOW...ETC/
    THUNDER OR FOG.

PAZ002>004-007>009-013>016-020>023-029>032-241700-
WESTERN PENNSYLVANIA

CITY           SKY/WX    TMP DP  RH WIND       PRES   REMARKS
ERIE           SUNNY     71  48  43 W13G22    30.07S
MEADVILLE      SUNNY     71  45  39 NW13G20   30.09S
FRANKLIN*      SUNNY     73  46  38 NW9       30.11S
NEW CASTLE     FAIR      75  47  36 NW8       30.09F
BEAVER COUNTY  MOSUNNY   73  46  38 W8        30.10S
BUTLER*        SUNNY     73  52  46 W9        30.13S
PITTSBURGH INT MOSUNNY   76  44  32 W10G22    30.09S
PITTSBURGH     MOSUNNY   73  49  42 W9        30.10R
INDIANA*       SUNNY     72  52  49 NW10      30.12F
LATROBE        SUNNY     72  52  49 W12       30.11S
WASHINGTON CO* MOSUNNY   73  54  49 W8        30.12R
$$

PAZ004>006-010>012-017>019-024>028-033>037-041-042-045-046-049>053-241700-
CENTRAL PENNSYLVANIA

CITY           SKY/WX    TMP DP  RH WIND       PRES   REMARKS
BRADFORD         N/A    N/A N/A N/A NW17G23   30.06S
DUBOIS         MOSUNNY   71  46  40 W13G18    30.06F
CLEARFIELD     MOSUNNY   75  44  33 NW17      30.05S
JOHNSTOWN      SUNNY     69  43  38 NW12G20   30.10S
ALTOONA        SUNNY     73  44  35 NW9       30.07S
STATE COLLEGE  MOSUNNY   75  46  35 NW12      30.03S
WILLIAMSPORT   MOSUNNY   76  48  37 SE3       29.95F
SELINSGROVE    SUNNY     78  49  35 CALM      29.98S
FT INDIANTOWN  MOSUNNY   76  48  36 VRB6      29.98R
CAPITAL CITY   SUNNY     79  46  31 N7        29.98F
HARRISBURG     MOSUNNY   77  49  37 W7        29.98S
YORK           SUNNY     77  49  37 N8        30.00S
$$

PAZ038>040-043-044-047-048-054-055-060>062-067>071-241700-
EASTERN PENNSYLVANIA

CITY           SKY/WX    TMP DP  RH WIND       PRES   REMARKS
SCRANTON       SUNNY     74  45  35 NW14G23   29.95F
MOUNT POCONO   PTSUNNY   65  40  39 NW12G22   29.97S
ALLENTOWN      CLOUDY    76  47  35 CALM      29.93F
QUAKERTOWN*    CLOUDY    72  48  43 W5        29.96S
READING        SUNNY     76  49  38 NW8G20    29.95F
LANCASTER      SUNNY     76  52  43 N10       29.98S
COATESVILLE      N/A    N/A N/A N/A MISG        N/A
POTTSTOWN      SUNNY     74  51  44 NW6       29.97S
BLUE BELL      PTSUNNY   68  52  56 W7        29.96S
DOYLESTOWN     PTSUNNY   70  53  54 SW6       29.95R
WILLOW GROVE   NOT AVBL
NORTH PHILA    CLOUDY    71  54  54 CALM      29.97S
PHILADELPHIA   PTSUNNY   72  52  49 S8        29.96S
$$



USA.gov is the U.S. government's official web portal to all federal, state and local government web resources and services.